www.pogodaiklimat.ru

Погода и климат >> Архив погоды >> Бразилия >> Баия >> Макажуба


ПОГОДА в Макажубе

  • Прогноз погоды в Макажубе
  • Монитор погоды в Макажубе

АРХИВ ПОГОДЫ в Макажубе

Время (UTC), дата Ветер
(напр.,м/с)
 
Видим.   Явления Облачность Т
(С)
Тd
(С)
f
(%)
Тe
(С)
Тes
(С)
Комфортность P
(гПа)
Po
(гПа)
Тmin
(С)
Tmax
(С)
R
(мм)
R24
(мм)
S
(см)
13 14.08 ЮВ 3
{4}
н/о н/о +21.9 +18.0 79 +27 +27 душно 1020.1 980.8
14 14.08 В 2
{4}
н/о н/о +23.2 +18.1 73 +29 +29 душно 1019.3 980.2
15 14.08 ЮЗ 2
{4}
н/о н/о +24.4 +18.1 68 +29 +29 душно 1018.2 979.3
16 14.08 В 3
{5}
н/о н/о +25.1 +17.7 64 +29 +29 душно 1017.5 978.7
17 14.08 ЮВ 3
{6}
н/о н/о +25.6 +16.2 56 +29 +29 душно 1016.9 978.2
18 14.08 ЮЗ 3
{5}
н/о н/о +25.6 +16.2 56 +29 +29 душно 1016.6 977.9
19 14.08 ЮЗ 4
{5}
н/о н/о +25.4 +16.6 58 +29 +29 душно 1016.9 978.2
20 14.08 ЮЗ 2
{5}
н/о н/о +24.7 +16.6 61 +28 +28 душно 1017.1 978.3
21 14.08 ЮЗ 2
{4}
н/о н/о +23.9 +16.0 61 +27 +27 жарко 1017.7 978.8
22 14.08 ЮЗ 2
{5}
н/о н/о +22.8 +15.7 64 +27 +27 душно 1018.8 979.7
23 14.08 ЮЗ 2
{3}
н/о н/о +21.5 +15.3 68 +25 +25 комфорт 1019.8 980.5
00 15.08 ЮЗ 1
{3}
н/о н/о +19.9 +15.5 76 +23 +23 комфорт 1020.7 981.1
01 15.08 штиль 0
{2}
н/о н/о +17.2 +14.3 83 +17 +17 1021.7 981.7
02 15.08 штиль 0
{1}
н/о н/о +16.4 +14.5 89 +16 +16 1021.9 981.8
03 15.08 штиль 0
{1}
н/о н/о +15.9 +14.3 90 +16 +16 1021.6 981.5
04 15.08 штиль 0
{2}
н/о н/о +15.8 +14.4 91 +16 +16 1021.1 981.0
05 15.08 штиль 0
{1}
н/о н/о +15.1 +13.7 91 +15 +15 1020.9 980.7
06 15.08 штиль 0
{1}
н/о н/о +14.6 +13.3 92 +14 +14 1020.9 980.6
07 15.08 СЗ 1
{1}
н/о н/о +15.7 +14.5 93 +17 +17 1020.8 980.7
08 15.08 штиль 0
{1}
н/о н/о +16.7 +15.4 92 +17 +17 1021.1 981.1
09 15.08 штиль 0
{1}
н/о н/о +16.9 +15.6 92 +17 +17 1021.7 981.7
10 15.08 СЗ 1
{1}
н/о н/о +17.8 +16.4 92 +19 +19 1022.0 982.1 0.2
11 15.08 ЮЗ 1
{2}
н/о н/о +20.3 +16.1 77 +25 +25 комфорт 1022.8 983.2
12 15.08 Ю 2
{2}
н/о н/о +21.9 +16.6 72 +26 +26 душно 1023.2 983.8
13 15.08 ЮЗ 3
{5}
н/о н/о +22.1 +16.5 71 +26 +26 душно 1023.5 984.1
14 15.08 З 2
{5}
н/о н/о +24.1 +17.9 68 +28 +28 душно 1022.3 983.2 0.2
15 15.08 ЮЗ 3
{5}
н/о н/о +25.4 +16.9 59 +29 +29 душно 1021.1 982.2
16 15.08 ЮЗ 3
{6}
н/о н/о +26.8 +16.6 54 +30 +30 душно 1019.6 981.0
17 15.08 ЮЗ 4
{8}
н/о н/о +25.7 +17.5 61 +30 +30 душно 1019.2 980.5
18 15.08 З 3
{8}
н/о н/о +25.1 +17.1 61 +29 +29 душно 1019.0 980.2
19 15.08 З 2
{6}
н/о н/о +24.8 +16.8 61 +28 +28 жарко 1018.8 980.0
20 15.08 Ю 1
{4}
н/о н/о +23.3 +17.5 70 +29 +29 душно 1019.1 980.1
21 15.08 З 2
{4}
н/о н/о +22.9 +16.0 65 +27 +27 душно 1019.4 980.3
22 15.08 ЮЗ 2
{4}
н/о н/о +22.0 +16.0 69 +26 +26 душно 1020.3 981.0
23 15.08 ЮЗ 2
{4}
н/о н/о +21.9 +16.5 71 +26 +26 душно 1020.9 981.6
00 16.08 ЮЗ 3
{4}
н/о н/о +21.7 +16.4 72 +26 +26 душно 1021.5 982.2
01 16.08 ЮЗ 3
{4}
н/о н/о +20.6 +16.7 78 +24 +24 комфорт 1021.8 982.3 0.2
02 16.08 ЮЗ 1
{5}
н/о н/о +19.1 +17.4 90 +22 +22 комфорт 1022.1 982.4 1
03 16.08 ЮЗ 1
{2}
н/о н/о +18.8 +17.2 90 +21 +21 комфорт 1021.6 981.9 1
04 16.08 ЮЗ 2
{5}
н/о н/о +18.5 +16.9 90 +20 +20 1021.1 981.3 1
05 16.08 ЮЗ 2
{4}
н/о н/о +18.4 +17.0 92 +20 +20 1020.5 980.8 0.2
06 16.08 ЮЗ 1
{2}
н/о н/о +18.7 +17.2 91 +21 +21 комфорт 1020.0 980.3 0.4
07 16.08 ЮЗ 1
{2}
н/о н/о +18.7 +17.3 92 +21 +21 комфорт 1019.9 980.2 0.4
08 16.08 ЮЗ 2
{3}
н/о н/о +18.7 +17.2 91 +21 +21 комфорт 1020.3 980.6 4
09 16.08 Ю 2
{4}
н/о н/о +18.1 +16.6 91 +19 +19 1020.9 981.1 0.4
10 16.08 Ю 2
{3}
н/о н/о +18.4 +16.8 90 +20 +20 1021.6 981.8
11 16.08 Ю 2
{3}
н/о н/о +18.9 +16.9 88 +21 +21 комфорт 1022.1 982.4
12 16.08 Ю 2
{4}
н/о н/о +19.7 +16.9 84 +23 +23 комфорт 1022.9 983.2
13 16.08 ЮВ 3
{4}
н/о н/о +20.4 +17.3 82 +24 +24 комфорт 1023.0 983.4
14 16.08 Ю 3
{5}
н/о н/о +20.9 +18.0 83 +25 +25 комфорт 1022.3 982.8 0.2
15 16.08 Ю 2
{4}
н/о н/о +22.4 +19.3 83 +28 +28 душно 1020.9 981.7 0.6
16 16.08 ЮЗ 2
{4}
н/о н/о +23.1 +19.3 79 +29 +29 очень
душно
1019.6 980.5 2
17 16.08 ЮЗ 4
{6}
н/о н/о +22.2 +17.4 74 +27 +27 душно 1018.8 979.6
18 16.08 ЮЗ 2
{6}
н/о н/о +23.0 +17.8 73 +28 +28 душно 1018.3 979.2 0.2
19 16.08 ЮЗ 3
{6}
н/о н/о +23.8 +17.2 67 +28 +28 душно 1017.8 978.9
20 16.08 ЮЗ 3
{5}
н/о н/о +23.6 +17.3 68 +27 +27 жарко 1018.2 979.2
21 16.08 ЮЗ 1
{7}
н/о н/о +20.7 +18.7 88 +26 +26 душно 1019.0 979.6 2
22 16.08 ЮЗ 2
{3}
н/о н/о +20.3 +18.2 88 +25 +25 комфорт 1019.8 980.3
23 16.08 ЮЗ 2
{4}
н/о н/о +20.1 +18.0 88 +24 +24 комфорт 1020.4 980.9
00 17.08 ЮЗ 3
{4}
н/о н/о +19.4 +17.5 89 +22 +22 комфорт 1021.2 981.6 0.2
01 17.08 ЮЗ 1
{4}
н/о н/о +19.4 +17.7 90 +23 +23 комфорт 1021.6 981.9
02 17.08 З 1
{2}
н/о н/о +19.2 +17.6 90 +22 +22 комфорт 1021.6 981.9
03 17.08 ЮЗ 1
{2}
н/о н/о +19.1 +17.6 91 +22 +22 комфорт 1021.4 981.7 0.4
04 17.08 ЮЗ 1
{2}
н/о н/о +19.0 +17.4 90 +22 +22 комфорт 1020.5 980.8
05 17.08 ЮЗ 1
{3}
н/о н/о +18.7 +17.2 91 +21 +21 комфорт 1019.8 980.1 0.4
06 17.08 ЮЗ 2
{4}
н/о н/о +18.7 +17.1 90 +21 +21 комфорт 1019.2 979.5
07 17.08 Ю 1
{2}
н/о н/о +18.6 +17.2 92 +21 +21 комфорт 1018.9 979.2
08 17.08 Ю 1
{3}
н/о н/о +18.1 +16.6 91 +19 +19 1019.2 979.5 0.4
09 17.08 Ю 1
{3}
н/о н/о +17.8 +16.4 92 +19 +19 1019.7 979.9 0.4
10 17.08 Ю 2
{2}
н/о н/о +18.0 +16.5 91 +19 +19 1020.2 980.4
11 17.08 Ю 1
{2}
н/о н/о +18.5 +16.9 90 +20 +20 1020.7 981.0
12 17.08 Ю 1
{3}
н/о н/о +18.8 +17.3 91 +21 +21 комфорт 1021.4 981.7 0.4
13 17.08 Ю 2
{3}
н/о н/о +20.0 +17.8 87 +24 +24 комфорт 1021.1 981.5
14 17.08 Ю 2
{3}
н/о н/о +21.6 +18.2 81 +26 +26 душно 1020.1 980.8
15 17.08 Ю 1
{3}
н/о н/о +21.3 +19.2 88 +26 +26 душно 1019.3 980.0 0.4
16 17.08 Ю 2
{3}
н/о н/о +21.3 +19.2 88 +26 +26 душно 1018.3 979.0 0.4
17 17.08 ЮЗ 2
{4}
н/о н/о +21.6 +19.7 89 +27 +27 душно 1017.2 978.0 0.6
18 17.08 Ю 2
{5}
н/о н/о +21.0 +18.9 88 +26 +26 душно 1016.7 977.4 1
19 17.08 В 2
{3}
н/о н/о +22.4 +19.6 84 +28 +28 душно 1016.3 977.2 0.2
20 17.08 ЮВ 3
{5}
н/о н/о +20.6 +18.7 89 +25 +25 комфорт 1017.1 977.8 2
21 17.08 В 3
{5}
н/о н/о +20.2 +18.2 88 +24 +24 комфорт 1017.5 978.1 0.2
22 17.08 В 1
{5}
н/о н/о +19.6 +18.0 90 +23 +23 комфорт 1018.2 978.7
23 17.08 штиль 0
{2}
н/о н/о +19.7 +18.2 91 +22 +22 комфорт 1018.5 979.0 0.2
00 18.08 ЮВ 1
{1}
н/о н/о +19.9 +18.3 90 +24 +24 комфорт 1018.7 979.2
01 18.08 ЮВ 1
{2}
н/о н/о +19.8 +18.3 91 +24 +24 комфорт 1019.0 979.5
02 18.08 Ю 1
{2}
н/о н/о +19.7 +18.1 90 +23 +23 комфорт 1018.9 979.4
03 18.08 Ю 1
{2}
н/о н/о +19.6 +18.0 90 +23 +23 комфорт 1018.6 979.1
04 18.08 штиль 0
{2}
н/о н/о +19.5 +17.9 90 +22 +22 комфорт 1018.2 978.7
05 18.08 Ю 1
{2}
н/о н/о +19.3 +17.7 90 +22 +22 комфорт 1017.9 978.4
06 18.08 Ю 1
{1}
н/о н/о +19.1 +17.5 90 +22 +22 комфорт 1017.7 978.2
07 18.08 штиль 0
{1}
н/о н/о +18.9 +17.4 91 +20 +20 1018.0 978.4
08 18.08 Ю 1
{1}
н/о н/о +18.8 +17.3 91 +22 +22 комфорт 1018.1 978.5
09 18.08 ЮЗ 1
{1}
н/о н/о +19.0 +17.5 91 +22 +22 комфорт 1018.4 978.8
10 18.08 ЮЗ 1
{1}
н/о н/о +19.2 +17.8 92 +23 +23 комфорт 1019.0 979.4
11 18.08 ЮЗ 1
{2}
н/о н/о +19.8 +18.0 89 +24 +24 комфорт 1019.6 980.1
12 18.08 ЮЗ 1
{2}
н/о н/о +20.3 +18.3 88 +25 +25 комфорт 1020.4 980.9 0.2
13 18.08 штиль 0
{1}
н/о н/о +20.2 +18.1 88 +23 +23 комфорт 1020.6 981.1 0.4
14 18.08 штиль 0
{1}
н/о н/о +20.5 +18.3 87 +24 +24 комфорт 1019.9 980.5 1
15 18.08 ЮЗ 1
{3}
н/о н/о +20.8 +18.9 89 +27 +27 душно 1019.1 979.7 0.8
16 18.08 ЮЗ 2
{3}
н/о н/о +22.5 +19.7 84 +29 +29 очень
душно
1017.9 978.8
17 18.08 ЮЗ 1
{3}
н/о н/о +23.9 +18.5 72 +28 +28 душно 1016.8 977.9
18 18.08 штиль 0
{2}
н/о н/о +25.4 +17.5 62 +30 +30 душно 1015.8 977.1
19 18.08 ЮЗ 1
{1}
н/о н/о +25.6 +17.3 60 +30 +30 душно 1015.6 977.0
20 18.08 ЮЗ 2
{2}
н/о н/о +24.6 +17.5 65 +29 +29 душно 1015.8 977.0
21 18.08 ЮЗ 1
{3}
н/о н/о +22.5 +18.0 76 +28 +28 душно 1016.1 977.1
22 18.08 штиль 0
{1}
н/о н/о +21.2 +18.4 84 +25 +25 комфорт 1016.5 977.3
23 18.08 ЮЗ 2
{2}
н/о н/о +20.6 +18.7 89 +25 +25 комфорт 1017.2 977.9
00 19.08 ЮЗ 1
{2}
н/о н/о +20.5 +18.6 89 +25 +25 комфорт 1017.9 978.5
01 19.08 ЮЗ 1
{2}
н/о н/о +19.9 +18.1 89 +24 +24 комфорт 1018.4 978.9
02 19.08 штиль 0
{1}
н/о н/о +19.4 +17.9 91 +21 +21 комфорт 1018.5 979.0
03 19.08 ЮЗ 2
{2}
н/о н/о +20.3 +18.6 90 +25 +25 комфорт 1018.1 978.7
04 19.08 ЮЗ 2
{2}
н/о н/о +20.2 +18.5 90 +24 +24 комфорт 1017.6 978.2
05 19.08 ЮЗ 1
{2}
н/о н/о +20.1 +18.3 89 +25 +25 комфорт 1017.3 977.9
06 19.08 ЮЗ 1
{1}
н/о н/о +19.9 +18.2 90 +24 +24 комфорт 1017.0 977.6
07 19.08 ЮЗ 1
{2}
н/о н/о +19.8 +18.1 90 +24 +24 комфорт 1017.3 977.9
08 19.08 ЮЗ 1
{2}
н/о н/о +19.6 +17.8 89 +24 +24 комфорт 1017.4 977.9
09 19.08 ЮЗ 1
{1}
н/о н/о +19.6 +17.8 89 +24 +24 комфорт 1017.8 978.3
10 19.08 ЮЗ 1
{1}
н/о н/о +19.9 +18.1 89 +24 +24 комфорт 1018.2 978.7
11 19.08 ЮЗ 1
{1}
н/о н/о +20.5 +18.5 88 +26 +26 душно 1018.9 979.5
12 19.08 ЮЗ 1
{2}
н/о н/о +22.2 +19.1 83 +28 +28 душно 1018.6 979.4
13 19.08 ЮЗ 1
{2}
н/о н/о +23.9 +18.4 71 +28 +28 душно 1018.1 979.2
14 19.08 СЗ 1
{2}
н/о н/о +25.8 +18.6 64 +31 +31 очень
душно
1017.3 978.6
15 19.08 ЮЗ 2
{3}
н/о н/о +26.4 +18.3 61 +31 +31 душно 1016.5 977.9
16 19.08 З 1
{3}
н/о н/о +27.3 +17.9 56 +32 +32 очень
душно
1015.4 977.0
17 19.08 ЮЗ 1
{2}
н/о н/о +28.1 +17.3 52 +32 +32 душно 1014.0 975.8
18 19.08 ЮЗ 2
{3}
н/о н/о +28.4 +17.3 51 +32 +32 душно 1013.4 975.2
19 19.08 З 1
{3}
н/о н/о +28.6 +16.4 48 +32 +32 душно 1013.4 975.2
20 19.08 З 1
{2}
н/о н/о +27.1 +16.5 52 +31 +31 душно 1013.7 975.3
21 19.08 З 1
{2}
н/о н/о +24.1 +17.5 67 +28 +28 душно 1014.3 975.5
22 19.08 штиль 0
{1}
н/о н/о +21.0 +17.3 79 +25 +25 комфорт 1015.1 975.9
23 19.08 В 1
{1}
н/о н/о +19.7 +17.4 87 +24 +24 комфорт 1016.1 976.7
00 20.08 В 1
{2}
н/о н/о +22.0 +18.6 81 +27 +27 душно 1016.5 977.4
01 20.08 штиль 0
{2}
н/о н/о +20.7 +18.5 87 +24 +24 комфорт 1017.4 978.1
02 20.08 штиль 0
{1}
н/о н/о +20.1 +18.2 89 +23 +23 комфорт 1017.7 978.3
03 20.08 штиль 0
{1}
н/о н/о +18.8 +17.1 90 +20 +20 1017.8 978.2
04 20.08 ЮВ 1
{2}
н/о н/о +20.2 +18.7 91 +25 +25 комфорт 1017.2 977.8
05 20.08 ЮЗ 1
{2}
н/о н/о +20.2 +18.7 91 +25 +25 комфорт 1017.0 977.6
06 20.08 ЮЗ 1
{2}
н/о н/о +20.2 +18.7 91 +25 +25 комфорт 1017.1 977.7
07 20.08 З 1
{2}
н/о н/о +19.7 +18.2 91 +24 +24 комфорт 1017.5 978.0
08 20.08 СЗ 1
{1}
н/о н/о +19.5 +18.0 91 +23 +23 комфорт 1018.0 978.5
09 20.08 ЮЗ 1
{1}
н/о н/о +19.5 +18.1 92 +23 +23 комфорт 1018.4 978.9
10 20.08 ЮЗ 1
{1}
н/о н/о +19.9 +18.5 92 +24 +24 комфорт 1019.1 979.6
11 20.08 З 1
{1}
н/о н/о +21.0 +19.0 88 +27 +27 душно 1019.4 980.0
12 20.08 З 2
{3}
н/о н/о +21.9 +17.7 77 +26 +26 душно 1019.8 980.5
13 20.08 З 1
{3}
н/о н/о +22.0 +17.6 76 +27 +27 душно 1020.1 980.8
14 20.08 Ю 1
{2}
н/о н/о +22.8 +17.7 73 +28 +28 душно 1019.3 980.2
15 20.08 ЮЗ 1
{2}
н/о н/о +24.0 +17.5 67 +28 +28 душно 1018.3 979.4
16 20.08 ЮЗ 1
{2}
н/о н/о +24.8 +17.8 65 +29 +29 душно 1017.0 978.2
17 20.08 СВ 1
{3}
н/о н/о +26.7 +17.6 57 +31 +31 душно 1015.7 977.2
18 20.08 В 2
{3}
н/о н/о +27.0 +17.1 55 +31 +31 душно 1015.2 976.8
19 20.08 В 1
{3}
н/о н/о +26.8 +17.1 55 +31 +31 душно 1015.2 976.7
20 20.08 СВ 1
{2}
н/о н/о +26.7 +16.7 54 +30 +30 душно 1015.1 976.6
21 20.08 штиль 0
{1}
н/о н/о +22.1 +17.3 74 +27 +27 душно 1016.0 976.9
01 21.08 З 1
{2}
н/о н/о +20.0 +18.1 89 +25 +25 комфорт 1019.0 979.5
02 21.08 В 1
{2}
н/о н/о +20.8 +18.5 87 +26 +26 душно 1018.9 979.5
03 21.08 ЮВ 1
{2}
н/о н/о +20.8 +18.6 87 +26 +26 душно 1018.8 979.4
04 21.08 ЮВ 1
{2}
н/о н/о +20.8 +18.7 88 +26 +26 душно 1018.7 979.3
05 21.08 ЮВ 1
{2}
н/о н/о +20.3 +18.4 89 +25 +25 комфорт 1018.4 979.0
06 21.08 В 1
{1}
н/о н/о +19.9 +18.2 90 +24 +24 комфорт 1018.3 978.8
07 21.08 ЮВ 1
{1}
н/о н/о +19.5 +17.9 90 +23 +23 комфорт 1018.4 978.9
08 21.08 штиль 0
{1}
н/о н/о +19.1 +17.7 92 +21 +21 комфорт 1018.5 978.9
09 21.08 штиль 0
{1}
н/о н/о +19.3 +17.9 92 +21 +21 комфорт 1019.0 979.4
10 21.08 штиль 0
{1}
н/о н/о +20.0 +18.6 92 +23 +23 комфорт 1019.3 979.8
11 21.08 В 1
{2}
н/о н/о +22.2 +19.7 86 +28 +28 душно 1019.6 980.4
12 21.08 СЗ 2
{3}
н/о н/о +22.5 +17.8 75 +28 +28 душно 1020.2 981.0
13 21.08 СЗ 2
{3}
н/о н/о +24.6 +18.1 67 +29 +29 душно 1019.7 980.8
14 21.08 З 1
{4}
н/о н/о +25.4 +17.4 61 +29 +29 душно 1018.9 980.1

 

Местоположение метеостанции Макажуба (Баия, Бразилия): широта -12.12 долгота -40.35 высота над уровнем моря 382 м.

В архиве по умолчанию представлена погода в Макажубе за последнюю неделю. Архивные данные за месяц целиком и за предыдущие месяцы, начиная с января 2011 года, Вы можете получить, выбрав интересующий диапазон дат из раскрывающегося списка и нажав кнопку "Ввод!".


*Определитесь, кто Вы:
робот инопланетянин человек

Внимание! Время в таблицах - всемирное. Для получения местного времени необходимо прибавить поправку, которая равна -3 ч.

Смотрите также архив погоды в соседних городах и на ближайших метеорологических станциях:

Погода в Итаберабе (Баия, Бразилия) (45 км)
Погода в Жакобине (Баия, Бразилия) (103 км)
Погода в Жакобине (Баия, Бразилия) (105 км)
Погода в Ленсойсе (Баия, Бразилия) (122 км)
Погода в Ленсойсе (Баия, Бразилия) (123 км)
Погода в Амаргозе (Баия, Бразилия) (128 км)
Погода в Крус-даз-Алмасе (Баия, Бразилия) (144 км)
Погода в Кеймадасе (Баия, Бразилия) (150 км)
Погода в Фейра-ди-Сантане (Баия, Бразилия) (150 км)
Погода в Серринье (Баия, Бразилия) (153 км)

Пояснения к столбцам:

Ветер - указаны скорость ветра в м/с - средняя за 10 мин, порывы в срок и между сроками (в фигурных скобках) и направление, откуда дует ветер: С - северный, СВ - северо-восточный, В - восточный, ЮВ - юго-восточный, Ю - южный, ЮЗ - юго-западный, З - западный, СЗ - северо-западный.
Видимость - горизонтальная дальность видимости в метрах или километрах. При видимости от 1 до 10 км при отсутствии осадков обычно наблюдается дымка, при ухудшении видимости до 1 км и менее - туман. В сухую погоду видимость может ухудшаться дымом, пылью или мглою.
Явления - указаны атмосферные явления, наблюдавшиеся в срок или в последний час перед сроком; фигурными скобками обозначены явления, наблюдавшиеся между сроками (за 1-3 часа до срока); квадратными скобками обозначены град или гололедные отложения с указанием их диаметра в мм.
Облачность - указаны через наклонную черту общая и нижняя облачность в баллах и высота нижней границы облаков в метрах; квадратными скобками обозначены формы облаков: Ci - перистые, Cs - перисто-слоистые, Cc - перисто-кучевые, Ac - высококучевые, As - высокослоистые, Sc - слоисто-кучевые, Ns - слоисто-дождевые, Cu - кучевые, Cb - кучево-дождевые. Подробнее классификацию облаков см. в Атласе облаков (PDF).
T - Температура воздуха - температура, измеренная на высоте 2 м над землей.
Td - Температура точки росы - температура, при понижении до которой содержащийся в воздухе водяной пар достигнет насыщения.
f - Относительная влажность воздуха - влажноcть воздуха, измеренная на высоте 2 м над землей.
Te - Эффективная температура - температура, которую ощущает одетый по сезону человек в тени. Характеристика душности погоды. При расчете учитывается влияние влажности воздуха и скорости ветра на теплоощущения человека.
Tes - Эффективная температура на солнце - температура, которую ощущает человек, с поправкой на солнечный нагрев. Характеристика знойности погоды. Зависит от высоты солнца над горизонтом, облачности и скорости ветра. Ночью, в пасмурную погоду, а также при ветре 12 м/с и более поправка равна нулю.
P - Атмосферное давление - приведенное к уровню моря атмосферное давление.
Po - Атмосферное давление - измеренное на уровне метеостанции атмосферное давление.
Tmin - Минимальная температура - минимум температуры воздуха на высоте 2 м над землей.
Tmax - Максимальная температура - максимум температуры воздуха на высоте 2 м над землей.
R - Количество осадков - Количество выпавших осадков за период времени, мм. При наведении курсора мыши на число - период времени, за который выпало указанное количество осадков.
R24 - Количество осадков - Количество выпавших осадков за 24 часа, мм.
S - Снежный покров - Высота снежного покрова, см. При наведении курсора мыши на число - состояние снежного покрова и степень покрытия местности в баллах.